| time (UTC) | temp F | wind direction | speed knots | gust knots | rain 1hr in | rain 24hr in | rain mn in | humidity % | barometer mb |
| 20260508004553 | 75 | 173 | 4.3 | 8.7 | 0.00 | 0.00 | 0.00 | 8 | 1013.0 |
| 20260508004037 | 76 | 148 | 3.5 | 10.4 | 0.00 | 0.00 | 0.00 | 8 | 1013.1 |
| 20260508003538 | 76 | 198 | 3.5 | 10.4 | 0.00 | 0.00 | 0.00 | 10 | 1013.1 |
| 20260508003052 | 76 | 177 | 1.7 | 7.0 | 0.00 | 0.00 | 0.00 | 10 | 1013.1 |
| 20260508002535 | 76 | 238 | 2.6 | 7.0 | 0.00 | 0.00 | 0.00 | 11 | 1013.2 |
| 20260508002035 | 76 | 0 | 0.0 | 9.6 | 0.00 | 0.00 | 0.00 | 11 | 1013.2 |
| 20260508001551 | 75 | 217 | 4.3 | 9.6 | 0.00 | 0.00 | 0.00 | 12 | 1013.2 |
| 20260508001035 | 75 | 175 | 2.6 | 7.8 | 0.00 | 0.00 | 0.00 | 12 | 1013.2 |
| 20260508000536 | 75 | 211 | 3.5 | 8.7 | 0.00 | 0.00 | 0.00 | 12 | 1013.2 |
| 20260508000050 | 75 | 194 | 4.3 | 9.6 | 0.00 | 0.00 | 0.00 | 12 | 1013.2 |
| 20260507235535 | 76 | 205 | 4.3 | 9.6 | 0.00 | 0.00 | 0.00 | 13 | 1013.3 |
| 20260507235037 | 76 | 255 | 3.5 | 11.3 | 0.00 | 0.00 | 0.00 | 13 | 1013.2 |
| 20260507234558 | 76 | 263 | 6.1 | 11.3 | 0.00 | 0.00 | 0.00 | 13 | 1013.2 |
| 20260507234035 | 77 | 267 | 2.6 | 10.4 | 0.00 | 0.00 | 0.00 | 13 | 1013.3 |
| 20260507233535 | 77 | 149 | 5.2 | 10.4 | 0.00 | 0.00 | 0.00 | 13 | 1013.3 |
| 20260507233049 | 77 | 183 | 3.5 | 7.8 | 0.00 | 0.00 | 0.00 | 13 | 1013.3 |
| 20260507232536 | 77 | 144 | 2.6 | 7.8 | 0.00 | 0.00 | 0.00 | 13 | 1013.4 |
| 20260507232036 | 77 | 192 | 2.6 | 6.1 | 0.00 | 0.00 | 0.00 | 13 | 1013.4 |
| 20260507231553 | 77 | 175 | 0.9 | 8.7 | 0.00 | 0.00 | 0.00 | 13 | 1013.4 |
| 20260507231037 | 77 | 152 | 2.6 | 8.7 | 0.00 | 0.00 | 0.00 | 13 | 1013.6 |
| 20260507230535 | 77 | 188 | 0.9 | 7.8 | 0.00 | 0.00 | 0.00 | 12 | 1013.6 |
| 20260507230056 | 77 | 0 | 2.6 | 13.9 | 0.00 | 0.00 | 0.00 | 12 | 1013.6 |
| 20260507225536 | 77 | 143 | 6.1 | 13.9 | 0.00 | 0.00 | 0.00 | 12 | 1013.8 |
| 20260507225037 | 77 | 163 | 4.3 | 10.4 | 0.00 | 0.00 | 0.00 | 12 | 1013.8 |
| 20260507224551 | 77 | 181 | 1.7 | 7.8 | 0.00 | 0.00 | 0.00 | 12 | 1013.9 |
| 20260507224035 | 77 | 90 | 2.6 | 7.8 | 0.00 | 0.00 | 0.00 | 12 | 1014.0 |
| 20260507223535 | 77 | 139 | 3.5 | 10.4 | 0.00 | 0.00 | 0.00 | 12 | 1013.9 |
| 20260507223056 | 77 | 173 | 3.5 | 10.4 | 0.00 | 0.00 | 0.00 | 12 | 1014.0 |
| 20260507222536 | 77 | 138 | 3.5 | 10.4 | 0.00 | 0.00 | 0.00 | 12 | 1014.1 |
| 20260507222035 | 77 | 248 | 4.3 | 7.8 | 0.00 | 0.00 | 0.00 | 12 | 1014.2 |
| 20260507221552 | 76 | 156 | 3.5 | 7.8 | 0.00 | 0.00 | 0.00 | 12 | 1014.2 |
| 20260507221035 | 76 | 119 | 1.7 | 7.8 | 0.00 | 0.00 | 0.00 | 11 | 1014.3 |
| 20260507220535 | 77 | 202 | 3.5 | 7.8 | 0.00 | 0.00 | 0.00 | 11 | 1014.4 |
| 20260507220054 | 77 | 252 | 1.7 | 7.0 | 0.00 | 0.00 | 0.00 | 11 | 1014.5 |
| 20260507215537 | 76 | 215 | 2.6 | 7.0 | 0.00 | 0.00 | 0.00 | 11 | 1014.5 |
| 20260507215036 | 77 | 346 | 1.7 | 6.1 | 0.00 | 0.00 | 0.00 | 11 | 1014.6 |
| 20260507214552 | 76 | 342 | 0.9 | 4.3 | 0.00 | 0.00 | 0.00 | 11 | 1014.8 |
| 20260507214035 | 75 | 225 | 0.0 | 7.0 | 0.00 | 0.00 | 0.00 | 11 | 1015.0 |
| 20260507213535 | 75 | 283 | 2.6 | 9.6 | 0.00 | 0.00 | 0.00 | 11 | 1015.2 |
| 20260507213049 | 75 | 254 | 4.3 | 9.6 | 0.00 | 0.00 | 0.00 | 10 | 1015.2 |
| 20260507212535 | 75 | 320 | 2.6 | 8.7 | 0.00 | 0.00 | 0.00 | 10 | 1015.2 |
| 20260507212038 | 75 | 0 | 0.9 | 8.7 | 0.00 | 0.00 | 0.00 | 11 | 1015.4 |
| 20260507211551 | 74 | 104 | 5.2 | 8.7 | 0.00 | 0.00 | 0.00 | 11 | 1015.5 |
| 20260507211034 | 75 | 119 | 0.9 | 9.6 | 0.00 | 0.00 | 0.00 | 11 | 1015.6 |
| 20260507210536 | 74 | 122 | 3.5 | 9.6 | 0.00 | 0.00 | 0.00 | 10 | 1015.7 |
| 20260507210047 | 74 | 95 | 2.6 | 10.4 | 0.00 | 0.00 | 0.00 | 11 | 1015.8 |
| 20260507205535 | 74 | 177 | 4.3 | 10.4 | 0.00 | 0.00 | 0.00 | 11 | 1016.1 |
| 20260507205035 | 74 | 196 | 4.3 | 9.6 | 0.00 | 0.00 | 0.00 | 11 | 1016.1 |
| 20260507204552 | 73 | 101 | 3.5 | 7.8 | 0.00 | 0.00 | 0.00 | 11 | 1016.0 |
| 20260507204035 | 73 | 101 | 3.5 | 7.8 | 0.00 | 0.00 | 0.00 | 10 | 1016.2 |
| 20260507203538 | 74 | 102 | 1.7 | 7.0 | 0.00 | 0.00 | 0.00 | 10 | 1016.1 |
| 20260507203057 | 74 | 116 | 2.6 | 9.6 | 0.00 | 0.00 | 0.00 | 11 | 1016.2 |
| 20260507202535 | 73 | 196 | 3.5 | 9.6 | 0.00 | 0.00 | 0.00 | 11 | 1016.2 |
| 20260507202035 | 72 | 143 | 1.7 | 12.2 | 0.00 | 0.00 | 0.00 | 11 | 1016.3 |
| 20260507201545 | 72 | 226 | 6.1 | 12.2 | 0.00 | 0.00 | 0.00 | 11 | 1016.3 |
| 20260507201035 | 72 | 102 | 3.5 | 8.7 | 0.00 | 0.00 | 0.00 | 11 | 1016.4 |
| 20260507200535 | 72 | 224 | 4.3 | 8.7 | 0.00 | 0.00 | 0.00 | 11 | 1016.5 |
| 20260507200050 | 71 | 144 | 2.6 | 4.3 | 0.00 | 0.00 | 0.00 | 11 | 1016.6 |
| 20260507195535 | 70 | 350 | 0.9 | 5.2 | 0.00 | 0.00 | 0.00 | 11 | 1016.8 |
| 20260507195039 | 70 | 349 | 2.6 | 7.8 | 0.00 | 0.00 | 0.00 | 11 | 1016.9 |
| 20260507194551 | 70 | 42 | 1.7 | 7.8 | 0.00 | 0.00 | 0.00 | 11 | 1017.0 |
| 20260507194039 | 70 | 339 | 4.3 | 8.7 | 0.00 | 0.00 | 0.00 | 11 | 1017.1 |
| 20260507193541 | 69 | 93 | 3.5 | 8.7 | 0.00 | 0.00 | 0.00 | 13 | 1017.3 |
| 20260507193055 | 69 | 111 | 2.6 | 9.6 | 0.00 | 0.00 | 0.00 | 13 | 1017.4 |
| 20260507192535 | 69 | 80 | 1.7 | 10.4 | 0.00 | 0.00 | 0.00 | 12 | 1017.5 |
| 20260507192038 | 69 | 46 | 2.6 | 10.4 | 0.00 | 0.00 | 0.00 | 13 | 1017.7 |
| 20260507191548 | 68 | 30 | 2.6 | 12.2 | 0.00 | 0.00 | 0.00 | 14 | 1017.7 |
| 20260507191035 | 68 | 340 | 4.3 | 12.2 | 0.00 | 0.00 | 0.00 | 14 | 1017.7 |
| 20260507190539 | 68 | 57 | 4.3 | 10.4 | 0.00 | 0.00 | 0.00 | 16 | 1017.7 |
| 20260507190049 | 67 | 81 | 3.5 | 9.6 | 0.00 | 0.00 | 0.00 | 16 | 1017.8 |
| 20260507185535 | 67 | 38 | 2.6 | 12.2 | 0.00 | 0.00 | 0.00 | 16 | 1017.8 |
| 20260507185039 | 67 | 40 | 3.5 | 12.2 | 0.00 | 0.00 | 0.00 | 18 | 1018.0 |
| 20260507184554 | 67 | 352 | 6.1 | 12.2 | 0.00 | 0.00 | 0.00 | 18 | 1018.0 |
| 20260507184039 | 67 | 46 | 5.2 | 10.4 | 0.00 | 0.00 | 0.00 | 17 | 1018.1 |
| 20260507183538 | 66 | 44 | 2.6 | 9.6 | 0.00 | 0.00 | 0.00 | 20 | 1018.4 |
| 20260507183055 | 66 | 28 | 3.5 | 7.0 | 0.00 | 0.00 | 0.00 | 20 | 1018.5 |
| 20260507182539 | 65 | 29 | 1.7 | 9.6 | 0.00 | 0.00 | 0.00 | 21 | 1018.4 |
| 20260507182038 | 64 | 80 | 3.5 | 9.6 | 0.00 | 0.00 | 0.00 | 22 | 1018.6 |
| 20260507181549 | 64 | 71 | 3.5 | 10.4 | 0.00 | 0.00 | 0.00 | 21 | 1018.6 |
| 20260507181039 | 64 | 55 | 2.6 | 10.4 | 0.00 | 0.00 | 0.00 | 22 | 1018.8 |
| 20260507180541 | 63 | 18 | 4.3 | 9.6 | 0.00 | 0.00 | 0.00 | 22 | 1018.8 |
| 20260507180049 | 63 | 350 | 2.6 | 8.7 | 0.00 | 0.00 | 0.00 | 22 | 1018.9 |
| 20260507175539 | 62 | 326 | 2.6 | 7.0 | 0.00 | 0.00 | 0.00 | 22 | 1019.1 |
| 20260507175040 | 61 | 46 | 2.6 | 12.2 | 0.00 | 0.00 | 0.00 | 24 | 1019.1 |
| 20260507174605 | 61 | 350 | 1.7 | 12.2 | 0.00 | 0.00 | 0.00 | 24 | 1019.3 |
| 20260507174040 | 61 | 5 | 3.5 | 12.2 | 0.00 | 0.00 | 0.00 | 25 | 1019.2 |
| 20260507173539 | 60 | 78 | 4.3 | 13.9 | 0.00 | 0.00 | 0.00 | 24 | 1019.5 |
| 20260507173059 | 61 | 352 | 2.6 | 13.9 | 0.00 | 0.00 | 0.00 | 25 | 1019.6 |
| 20260507172540 | 60 | 51 | 5.2 | 13.9 | 0.00 | 0.00 | 0.00 | 25 | 1019.8 |
| 20260507172039 | 60 | 38 | 2.6 | 12.2 | 0.00 | 0.00 | 0.00 | 25 | 1019.9 |
| 20260507171609 | 60 | 42 | 3.5 | 13.9 | 0.00 | 0.00 | 0.00 | 25 | 1019.9 |
| 20260507171037 | 60 | 315 | 4.3 | 13.9 | 0.00 | 0.00 | 0.00 | 25 | 1020.0 |
| 20260507170536 | 59 | 352 | 6.1 | 13.9 | 0.00 | 0.00 | 0.00 | 25 | 1020.0 |
| 20260507170056 | 58 | 35 | 5.2 | 11.3 | 0.00 | 0.00 | 0.00 | 25 | 1020.1 |
| 20260507165540 | 58 | 24 | 4.3 | 12.2 | 0.00 | 0.00 | 0.00 | 26 | 1020.3 |
| 20260507165035 | 58 | 347 | 6.1 | 12.2 | 0.00 | 0.00 | 0.00 | 27 | 1020.4 |
| 20260507164605 | 58 | 352 | 5.2 | 11.3 | 0.00 | 0.00 | 0.00 | 26 | 1020.5 |
| 20260507164035 | 58 | 24 | 4.3 | 10.4 | 0.00 | 0.00 | 0.00 | 26 | 1020.6 |
| 20260507163542 | 57 | 5 | 5.2 | 11.3 | 0.00 | 0.00 | 0.00 | 28 | 1020.7 |
| 20260507163051 | 56 | 39 | 5.2 | 11.3 | 0.00 | 0.00 | 0.00 | 29 | 1020.6 |
| 20260507162539 | 56 | 352 | 6.1 | 13.9 | 0.00 | 0.00 | 0.00 | 33 | 1020.7 |
| 20260507162035 | 55 | 32 | 2.6 | 15.6 | 0.00 | 0.00 | 0.00 | 34 | 1020.8 |
| 20260507161550 | 55 | 345 | 7.0 | 15.6 | 0.00 | 0.00 | 0.00 | 35 | 1020.9 |
| 20260507161039 | 54 | 332 | 7.0 | 13.0 | 0.00 | 0.00 | 0.00 | 36 | 1021.0 |
| 20260507160539 | 54 | 335 | 4.3 | 11.3 | 0.00 | 0.00 | 0.00 | 37 | 1021.3 |
| 20260507160058 | 53 | 28 | 4.3 | 12.2 | 0.00 | 0.00 | 0.00 | 39 | 1021.4 |
| 20260507155538 | 52 | 327 | 5.2 | 12.2 | 0.00 | 0.00 | 0.00 | 40 | 1021.6 |
| 20260507155039 | 51 | 5 | 5.2 | 13.0 | 0.00 | 0.00 | 0.00 | 41 | 1021.6 |
| 20260507154552 | 51 | 10 | 3.5 | 14.8 | 0.00 | 0.00 | 0.00 | 42 | 1021.7 |
| 20260507154038 | 51 | 352 | 7.8 | 14.8 | 0.00 | 0.00 | 0.00 | 43 | 1021.7 |
| 20260507153538 | 50 | 332 | 7.0 | 14.8 | 0.00 | 0.00 | 0.00 | 44 | 1021.7 |
| 20260507153052 | 50 | 35 | 4.3 | 14.8 | 0.00 | 0.00 | 0.00 | 45 | 1021.8 |
| 20260507152538 | 49 | 352 | 7.0 | 14.8 | 0.00 | 0.00 | 0.00 | 45 | 1021.9 |
| 20260507152036 | 49 | 333 | 3.5 | 11.3 | 0.00 | 0.00 | 0.00 | 47 | 1021.9 |
| 20260507151549 | 49 | 352 | 4.3 | 8.7 | 0.00 | 0.00 | 0.00 | 48 | 1022.0 |
| 20260507151039 | 48 | 11 | 3.5 | 9.6 | 0.00 | 0.00 | 0.00 | 50 | 1021.9 |
| 20260507150539 | 48 | 352 | 3.5 | 9.6 | 0.00 | 0.00 | 0.00 | 50 | 1022.1 |
| 20260507150054 | 47 | 32 | 3.5 | 8.7 | 0.00 | 0.00 | 0.00 | 52 | 1022.1 |
| 20260507145535 | 47 | 33 | 2.6 | 7.8 | 0.00 | 0.00 | 0.00 | 53 | 1022.2 |
| 20260507145040 | 46 | 9 | 2.6 | 8.7 | 0.00 | 0.00 | 0.00 | 53 | 1022.3 |
| 20260507144550 | 46 | 55 | 2.6 | 8.7 | 0.00 | 0.00 | 0.00 | 54 | 1022.3 |
| 20260507144039 | 45 | 20 | 1.7 | 8.7 | 0.00 | 0.00 | 0.00 | 55 | 1022.4 |
| 20260507143538 | 45 | 80 | 4.3 | 8.7 | 0.00 | 0.00 | 0.00 | 56 | 1022.4 |
| 20260507143055 | 44 | 30 | 1.7 | 7.0 | 0.00 | 0.00 | 0.00 | 57 | 1022.4 |
| 20260507142540 | 44 | 360 | 1.7 | 7.0 | 0.00 | 0.00 | 0.00 | 59 | 1022.5 |
| 20260507142039 | 43 | 68 | 2.6 | 6.1 | 0.00 | 0.00 | 0.00 | 60 | 1022.5 |
| 20260507141554 | 43 | 15 | 2.6 | 6.1 | 0.00 | 0.00 | 0.00 | 61 | 1022.4 |
| 20260507141039 | 42 | 53 | 1.7 | 4.3 | 0.00 | 0.00 | 0.00 | 62 | 1022.5 |
| 20260507140538 | 42 | 22 | 1.7 | 4.3 | 0.00 | 0.00 | 0.00 | 64 | 1022.6 |
| 20260507140051 | 41 | 11 | 1.7 | 4.3 | 0.00 | 0.00 | 0.00 | 65 | 1022.7 |
| 20260507135539 | 40 | 57 | 0.9 | 4.3 | 0.00 | 0.00 | 0.00 | 67 | 1022.8 |
| 20260507135040 | 39 | 53 | 0.9 | 6.1 | 0.00 | 0.00 | 0.00 | 69 | 1022.9 |
| 20260507134555 | 38 | 22 | 2.6 | 6.1 | 0.00 | 0.00 | 0.00 | 71 | 1022.8 |
| 20260507134038 | 37 | 62 | 0.9 | 4.3 | 0.00 | 0.00 | 0.00 | 73 | 1023.0 |
| 20260507133539 | 36 | 0 | 0.9 | 2.6 | 0.00 | 0.00 | 0.00 | 74 | 1023.0 |
| 20260507133057 | 35 | 0 | 0.0 | 1.7 | 0.00 | 0.00 | 0.00 | 76 | 1022.9 |
| 20260507132538 | 35 | 0 | 0.0 | 0.0 | 0.00 | 0.00 | 0.00 | 77 | 1023.0 |
| 20260507132038 | 34 | 0 | 0.0 | 1.7 | 0.00 | 0.00 | 0.00 | 79 | 1023.0 |
| 20260507131546 | 33 | 0 | 0.0 | 1.7 | 0.00 | 0.00 | 0.00 | 81 | 1023.0 |
| 20260507131040 | 32 | 57 | 0.0 | 1.7 | 0.00 | 0.00 | 0.00 | 82 | 1023.0 |
| 20260507130543 | 31 | 0 | 0.0 | 1.7 | 0.00 | 0.00 | 0.00 | 84 | 1022.9 |
| 20260507130051 | 31 | 0 | 0.0 | 1.7 | 0.00 | 0.00 | 0.00 | 84 | 1022.7 |
| 20260507125538 | 30 | 0 | 0.0 | 0.9 | 0.00 | 0.00 | 0.00 | 83 | 1022.8 |
| 20260507125041 | 29 | 0 | 0.0 | 0.9 | 0.00 | 0.00 | 0.00 | 83 | 1022.8 |
| 20260507124553 | 29 | 0 | 0.0 | 0.9 | 0.00 | 0.00 | 0.00 | 82 | 1022.8 |
| 20260507124035 | 29 | 0 | 0.0 | 0.0 | 0.00 | 0.00 | 0.00 | 82 | 1022.9 |
| 20260507123539 | 29 | 0 | 0.0 | 0.0 | 0.00 | 0.00 | 0.00 | 81 | 1022.8 |
| 20260507123051 | 29 | 0 | 0.0 | 0.0 | 0.00 | 0.00 | 0.00 | 80 | 1022.6 |
| 20260507122543 | 29 | 0 | 0.0 | 0.0 | 0.00 | 0.00 | 0.00 | 79 | 1022.7 |
| 20260507122043 | 29 | 0 | 0.0 | 2.6 | 0.00 | 0.00 | 0.00 | 79 | 1022.8 |
| 20260507121556 | 29 | 0 | 0.0 | 2.6 | 0.00 | 0.00 | 0.00 | 79 | 1022.8 |
| 20260507121042 | 30 | 76 | 0.0 | 2.6 | 0.00 | 0.00 | 0.00 | 79 | 1022.7 |
| 20260507120538 | 30 | 0 | 0.0 | 0.0 | 0.00 | 0.00 | 0.00 | 79 | 1022.7 |
| 20260507120050 | 30 | 0 | 0.0 | 1.7 | 0.00 | 0.00 | 0.00 | 79 | 1022.8 |
| 20260507115539 | 30 | 0 | 0.0 | 2.6 | 0.00 | 0.00 | 0.00 | 79 | 1022.8 |
| 20260507115038 | 30 | 0 | 0.9 | 2.6 | 0.00 | 0.00 | 0.00 | 79 | 1022.8 |
| 20260507114549 | 30 | 72 | 1.7 | 2.6 | 0.00 | 0.00 | 0.00 | 77 | 1022.8 |
| 20260507114041 | 31 | 72 | 1.7 | 2.6 | 0.00 | 0.00 | 0.00 | 77 | 1022.7 |
| 20260507113539 | 31 | 83 | 0.0 | 0.9 | 0.00 | 0.00 | 0.00 | 76 | 1022.6 |
| 20260507113052 | 32 | 0 | 0.0 | 1.7 | 0.00 | 0.00 | 0.00 | 76 | 1022.6 |
| 20260507112539 | 32 | 0 | 0.0 | 1.7 | 0.00 | 0.00 | 0.00 | 76 | 1022.6 |
| 20260507112039 | 32 | 83 | 0.0 | 1.7 | 0.00 | 0.00 | 0.00 | 76 | 1022.6 |
| 20260507111549 | 33 | 83 | 0.0 | 1.7 | 0.00 | 0.00 | 0.00 | 75 | 1022.6 |
| 20260507111039 | 33 | 0 | 0.0 | 1.7 | 0.00 | 0.00 | 0.00 | 74 | 1022.5 |
| 20260507110539 | 34 | 83 | 0.0 | 1.7 | 0.00 | 0.00 | 0.00 | 74 | 1022.4 |
| 20260507110105 | 34 | 0 | 0.0 | 1.7 | 0.00 | 0.00 | 0.00 | 76 | 1022.2 |
| 20260507105538 | 34 | 0 | 0.0 | 1.7 | 0.00 | 0.00 | 0.00 | 75 | 1022.1 |
| 20260507105039 | 34 | 83 | 0.0 | 1.7 | 0.00 | 0.00 | 0.00 | 75 | 1021.9 |
| 20260507104550 | 34 | 0 | 0.0 | 1.7 | 0.00 | 0.00 | 0.00 | 76 | 1021.9 |
| 20260507104135 | 35 | 83 | 0.0 | 3.5 | 0.00 | 0.00 | 0.00 | 76 | 1021.9 |
| 20260507103539 | 35 | 0 | 0.0 | 3.5 | 0.00 | 0.00 | 0.00 | 76 | 1022.0 |
| 20260507103054 | 35 | 88 | 1.7 | 3.5 | 0.00 | 0.00 | 0.00 | 74 | 1022.0 |
| 20260507102539 | 36 | 0 | 0.0 | 2.6 | 0.00 | 0.00 | 0.00 | 73 | 1021.9 |
| 20260507102035 | 36 | 326 | 0.9 | 3.5 | 0.00 | 0.00 | 0.00 | 74 | 1021.9 |
| 20260507101549 | 36 | 0 | 0.0 | 5.2 | 0.00 | 0.00 | 0.00 | 75 | 1022.0 |
| 20260507101040 | 36 | 77 | 1.7 | 6.1 | 0.00 | 0.00 | 0.00 | 74 | 1022.1 |
| 20260507100542 | 36 | 115 | 2.6 | 6.1 | 0.00 | 0.00 | 0.00 | 74 | 1022.1 |
| 20260507100045 | 36 | 116 | 3.5 | 6.1 | 0.00 | 0.00 | 0.00 | 73 | 1021.9 |
| 20260507095539 | 36 | 87 | 2.6 | 5.2 | 0.00 | 0.00 | 0.00 | 74 | 1022.0 |
| 20260507095038 | 36 | 84 | 2.6 | 4.3 | 0.00 | 0.00 | 0.00 | 73 | 1022.0 |
| 20260507094608 | 36 | 68 | 2.6 | 5.2 | 0.00 | 0.00 | 0.00 | 73 | 1021.8 |
| 20260507094038 | 37 | 58 | 3.5 | 5.2 | 0.00 | 0.00 | 0.00 | 74 | 1021.8 |
| 20260507093537 | 37 | 43 | 2.6 | 3.5 | 0.00 | 0.00 | 0.00 | 74 | 1021.9 |
| 20260507093057 | 37 | 74 | 1.7 | 3.5 | 0.00 | 0.00 | 0.00 | 73 | 1021.9 |
| 20260507092536 | 37 | 74 | 1.7 | 3.5 | 0.00 | 0.00 | 0.00 | 73 | 1021.9 |
| 20260507092038 | 37 | 80 | 1.7 | 5.2 | 0.00 | 0.00 | 0.00 | 73 | 1021.9 |
| 20260507091609 | 37 | 56 | 1.7 | 5.2 | 0.00 | 0.00 | 0.00 | 73 | 1021.8 |
| 20260507091035 | 37 | 71 | 2.6 | 4.3 | 0.00 | 0.00 | 0.00 | 72 | 1021.9 |
| 20260507090535 | 37 | 76 | 1.7 | 3.5 | 0.00 | 0.00 | 0.00 | 72 | 1021.7 |
| 20260507090057 | 37 | 65 | 1.7 | 4.3 | 0.00 | 0.00 | 0.00 | 72 | 1021.7 |
| 20260507085535 | 37 | 61 | 1.7 | 4.3 | 0.00 | 0.00 | 0.00 | 72 | 1021.7 |
| 20260507085035 | 38 | 78 | 1.7 | 4.3 | 0.00 | 0.00 | 0.00 | 71 | 1021.7 |
| 20260507084554 | 38 | 57 | 1.7 | 4.3 | 0.00 | 0.00 | 0.00 | 71 | 1021.6 |
| 20260507084036 | 38 | 62 | 1.7 | 4.3 | 0.00 | 0.00 | 0.00 | 71 | 1021.6 |
| 20260507083536 | 38 | 67 | 2.6 | 4.3 | 0.00 | 0.00 | 0.00 | 70 | 1021.5 |
| 20260507083050 | 38 | 69 | 2.6 | 4.3 | 0.00 | 0.00 | 0.00 | 69 | 1021.5 |
| 20260507082534 | 39 | 46 | 2.6 | 3.5 | 0.00 | 0.00 | 0.00 | 69 | 1021.6 |
| 20260507082034 | 39 | 66 | 1.7 | 3.5 | 0.00 | 0.00 | 0.00 | 68 | 1021.6 |
| 20260507081550 | 40 | 81 | 1.7 | 3.5 | 0.00 | 0.00 | 0.00 | 67 | 1021.6 |
| 20260507081035 | 40 | 63 | 0.9 | 3.5 | 0.00 | 0.00 | 0.00 | 67 | 1021.5 |
| 20260507080535 | 40 | 63 | 2.6 | 3.5 | 0.00 | 0.00 | 0.00 | 66 | 1021.5 |
| 20260507080056 | 41 | 48 | 0.9 | 2.6 | 0.00 | 0.00 | 0.00 | 66 | 1021.5 |
| 20260507075534 | 41 | 12 | 0.9 | 2.6 | 0.00 | 0.00 | 0.00 | 66 | 1021.5 |
| 20260507075034 | 41 | 5 | 0.0 | 7.0 | 0.00 | 0.00 | 0.00 | 66 | 1021.4 |
| 20260507074550 | 41 | 0 | 0.9 | 7.0 | 0.00 | 0.00 | 0.00 | 66 | 1021.4 |
| 20260507074035 | 41 | 352 | 1.7 | 7.0 | 0.00 | 0.00 | 0.00 | 66 | 1021.3 |
| 20260507073537 | 41 | 360 | 1.7 | 7.0 | 0.00 | 0.00 | 0.00 | 67 | 1021.4 |
| 20260507073045 | 40 | 350 | 2.6 | 7.8 | 0.00 | 0.00 | 0.00 | 68 | 1021.3 |
| 20260507072536 | 40 | 345 | 1.7 | 7.8 | 0.00 | 0.00 | 0.00 | 69 | 1021.1 |
| 20260507072037 | 40 | 355 | 2.6 | 7.8 | 0.00 | 0.00 | 0.00 | 69 | 1021.1 |
| 20260507071554 | 39 | 342 | 2.6 | 5.2 | 0.00 | 0.00 | 0.00 | 69 | 1021.0 |
| 20260507071035 | 39 | 338 | 1.7 | 4.3 | 0.00 | 0.00 | 0.00 | 68 | 1021.0 |
| 20260507070535 | 39 | 341 | 0.9 | 2.6 | 0.00 | 0.00 | 0.00 | 66 | 1021.0 |
| 20260507070101 | 40 | 0 | 0.0 | 2.6 | 0.00 | 0.00 | 0.00 | 65 | 1020.9 |
| 20260507065534 | 40 | 0 | 0.0 | 2.6 | 0.00 | 0.00 | 0.00 | 66 | 1020.8 |
| 20260507065035 | 40 | 0 | 0.0 | 2.6 | 0.00 | 0.00 | 0.00 | 66 | 1020.9 |
| 20260507064549 | 40 | 0 | 0.0 | 2.6 | 0.00 | 0.00 | 0.00 | 64 | 1020.8 |
| 20260507064035 | 41 | 128 | 0.9 | 2.6 | 0.00 | 0.00 | 0.00 | 65 | 1020.8 |
| 20260507063535 | 41 | 0 | 0.0 | 1.7 | 0.00 | 0.00 | 0.00 | 64 | 1020.8 |
| 20260507063052 | 41 | 35 | 0.0 | 1.7 | 0.00 | 0.00 | 0.00 | 64 | 1020.7 |
| 20260507062536 | 41 | 0 | 0.0 | 1.7 | 0.00 | 0.00 | 0.00 | 64 | 1020.7 |
| 20260507062034 | 41 | 0 | 0.0 | 1.7 | 0.00 | 0.00 | 0.00 | 64 | 1020.6 |
| 20260507061544 | 41 | 0 | 0.0 | 1.7 | 0.00 | 0.00 | 0.00 | 64 | 1020.6 |
| 20260507061035 | 42 | 0 | 0.0 | 1.7 | 0.00 | 0.00 | 0.00 | 64 | 1020.5 |
| 20260507060534 | 41 | 9 | 0.0 | 2.6 | 0.00 | 0.00 | 0.00 | 65 | 1020.5 |
| 20260507060104 | 41 | 0 | 0.0 | 2.6 | 0.00 | 0.00 | 0.00 | 64 | 1020.4 |
| 20260507055535 | 42 | 347 | 0.0 | 2.6 | 0.00 | 0.00 | 0.00 | 64 | 1020.4 |
| 20260507055034 | 41 | 0 | 0.9 | 2.6 | 0.00 | 0.00 | 0.00 | 64 | 1020.3 |
| 20260507054552 | 42 | 19 | 0.0 | 3.5 | 0.00 | 0.00 | 0.00 | 64 | 1020.3 |
| 20260507054035 | 42 | 53 | 0.9 | 3.5 | 0.00 | 0.00 | 0.00 | 63 | 1020.3 |
| 20260507053535 | 42 | 96 | 1.7 | 2.6 | 0.00 | 0.00 | 0.00 | 62 | 1020.2 |
| 20260507053053 | 42 | 76 | 1.7 | 3.5 | 0.00 | 0.00 | 0.00 | 62 | 1020.0 |
| 20260507052539 | 42 | 110 | 1.7 | 3.5 | 0.00 | 0.00 | 0.00 | 61 | 1020.0 |
| 20260507052035 | 43 | 105 | 2.6 | 3.5 | 0.00 | 0.00 | 0.00 | 60 | 1020.0 |
| 20260507051550 | 43 | 109 | 1.7 | 3.5 | 0.00 | 0.00 | 0.00 | 59 | 1020.0 |
| 20260507051035 | 44 | 165 | 0.0 | 2.6 | 0.00 | 0.00 | 0.00 | 59 | 1019.9 |
| 20260507050535 | 44 | 0 | 0.0 | 3.5 | 0.00 | 0.00 | 0.00 | 58 | 1019.9 |
| 20260507050052 | 44 | 0 | 0.9 | 3.5 | 0.00 | 0.00 | 0.00 | 58 | 1019.9 |
| 20260507045535 | 45 | 186 | 0.9 | 2.6 | 0.00 | 0.01 | 0.00 | 59 | 1019.8 |
| 20260507045035 | 45 | 0 | 0.0 | 1.7 | 0.00 | 0.01 | 0.00 | 59 | 1019.7 |
| 20260507044548 | 45 | 0 | 0.0 | 1.7 | 0.00 | 0.01 | 0.00 | 59 | 1019.7 |
| 20260507044035 | 45 | 0 | 0.0 | 4.3 | 0.00 | 0.01 | 0.00 | 59 | 1019.7 |
| 20260507043535 | 45 | 5 | 0.9 | 5.2 | 0.00 | 0.01 | 0.00 | 59 | 1019.5 |
| 20260507043055 | 45 | 15 | 1.7 | 5.2 | 0.00 | 0.01 | 0.00 | 59 | 1019.6 |
| 20260507042534 | 45 | 348 | 1.7 | 4.3 | 0.00 | 0.01 | 0.00 | 58 | 1019.6 |
| 20260507042034 | 46 | 0 | 0.0 | 1.7 | 0.00 | 0.01 | 0.00 | 58 | 1019.5 |
| 20260507041550 | 46 | 275 | 0.0 | 2.6 | 0.00 | 0.01 | 0.00 | 59 | 1019.5 |
| 20260507041034 | 46 | 0 | 0.0 | 5.2 | 0.00 | 0.01 | 0.00 | 58 | 1019.4 |
| 20260507040535 | 46 | 0 | 0.9 | 7.0 | 0.00 | 0.01 | 0.00 | 59 | 1019.4 |
| 20260507040052 | 46 | 323 | 2.6 | 7.0 | 0.00 | 0.01 | 0.00 | 58 | 1019.2 |
| 20260507035534 | 46 | 350 | 3.5 | 8.7 | 0.00 | 0.01 | 0.00 | 58 | 1019.0 |
| 20260507035034 | 46 | 323 | 3.5 | 8.7 | 0.00 | 0.01 | 0.00 | 58 | 1018.8 |
| 20260507034555 | 47 | 335 | 5.2 | 8.7 | 0.00 | 0.01 | 0.00 | 58 | 1018.7 |
| 20260507034036 | 47 | 348 | 4.3 | 8.7 | 0.00 | 0.01 | 0.00 | 57 | 1018.6 |
| 20260507033535 | 47 | 352 | 5.2 | 10.4 | 0.00 | 0.01 | 0.00 | 57 | 1018.6 |
| 20260507033049 | 47 | 332 | 5.2 | 12.2 | 0.00 | 0.01 | 0.00 | 56 | 1018.4 |
| 20260507032536 | 47 | 13 | 7.0 | 12.2 | 0.00 | 0.01 | 0.00 | 56 | 1018.4 |
| 20260507032034 | 48 | 360 | 7.0 | 11.3 | 0.00 | 0.01 | 0.00 | 55 | 1018.3 |
| 20260507031610 | 48 | 340 | 7.0 | 11.3 | 0.00 | 0.01 | 0.00 | 54 | 1018.2 |
| 20260507031035 | 49 | 352 | 5.2 | 10.4 | 0.00 | 0.01 | 0.00 | 53 | 1018.0 |
| 20260507030536 | 49 | 348 | 7.0 | 10.4 | 0.00 | 0.01 | 0.00 | 52 | 1017.9 |
| 20260507030052 | 50 | 344 | 4.3 | 8.7 | 0.00 | 0.01 | 0.00 | 50 | 1017.8 |
| 20260507025534 | 50 | 351 | 5.2 | 8.7 | 0.00 | 0.01 | 0.00 | 49 | 1017.8 |
| 20260507025034 | 51 | 360 | 3.5 | 8.7 | 0.00 | 0.01 | 0.00 | 47 | 1017.7 |
| 20260507024556 | 51 | 346 | 4.3 | 8.7 | 0.00 | 0.01 | 0.00 | 46 | 1017.7 |
| 20260507024035 | 52 | 348 | 2.6 | 8.7 | 0.00 | 0.01 | 0.00 | 46 | 1017.5 |
| 20260507023535 | 52 | 352 | 4.3 | 8.7 | 0.00 | 0.01 | 0.00 | 44 | 1017.4 |
| 20260507023047 | 53 | 46 | 2.6 | 9.6 | 0.00 | 0.01 | 0.00 | 42 | 1017.2 |
| 20260507022535 | 54 | 360 | 4.3 | 9.6 | 0.00 | 0.01 | 0.00 | 41 | 1017.2 |
| 20260507022034 | 54 | 5 | 4.3 | 14.8 | 0.00 | 0.01 | 0.00 | 39 | 1016.9 |
| 20260507021557 | 55 | 21 | 4.3 | 20.0 | 0.00 | 0.01 | 0.00 | 37 | 1016.6 |
| 20260507021036 | 56 | 325 | 4.3 | 20.0 | 0.00 | 0.01 | 0.00 | 34 | 1016.4 |
| 20260507020535 | 57 | 346 | 7.8 | 20.0 | 0.00 | 0.01 | 0.00 | 32 | 1016.2 |
| 20260507020052 | 57 | 247 | 2.6 | 4.3 | 0.00 | 0.01 | 0.00 | 30 | 1015.9 |
| 20260507015534 | 58 | 287 | 0.9 | 2.6 | 0.00 | 0.01 | 0.00 | 30 | 1015.9 |
| 20260507015035 | 58 | 296 | 0.9 | 2.6 | 0.00 | 0.01 | 0.00 | 29 | 1015.8 |
| 20260507014550 | 58 | 271 | 0.9 | 7.0 | 0.00 | 0.01 | 0.00 | 28 | 1015.7 |
| 20260507014035 | 59 | 274 | 1.7 | 7.0 | 0.00 | 0.01 | 0.00 | 28 | 1015.6 |
| 20260507013534 | 59 | 251 | 2.6 | 6.1 | 0.00 | 0.01 | 0.00 | 27 | 1015.4 |
| 20260507013049 | 59 | 261 | 2.6 | 6.1 | 0.00 | 0.01 | 0.00 | 27 | 1015.4 |
| 20260507012536 | 60 | 265 | 2.6 | 6.1 | 0.00 | 0.01 | 0.00 | 26 | 1015.4 |
| 20260507012037 | 60 | 271 | 2.6 | 8.7 | 0.00 | 0.01 | 0.00 | 26 | 1015.3 |
| 20260507011548 | 60 | 264 | 2.6 | 8.7 | 0.00 | 0.01 | 0.00 | 26 | 1015.3 |
| 20260507011035 | 61 | 241 | 3.5 | 8.7 | 0.00 | 0.01 | 0.00 | 25 | 1015.2 |
| 20260507010536 | 61 | 221 | 4.3 | 11.3 | 0.00 | 0.01 | 0.00 | 25 | 1015.1 |
| 20260507010059 | 61 | 251 | 5.2 | 11.3 | 0.00 | 0.01 | 0.00 | 24 | 1015.1 |
| 20260507005535 | 62 | 278 | 5.2 | 11.3 | 0.00 | 0.01 | 0.00 | 23 | 1015.2 |
| 20260507005036 | 62 | 246 | 6.1 | 11.3 | 0.00 | 0.01 | 0.00 | 24 | 1015.2 |